Location: Central Falls
(41.8900°N, 71.3929°W)
Time: 15:14:18
(UTC+00:00)

Vanguard 1 - Pass Details

Date: 12 December 2023
Orbit: 653 x 3826 km, 34.3° (Epoch: 24 February)

Event Time Altitude Azimuth Distance (km) Brightness Sun altitude
Rises 03:57:55 0° 282° (WNW) 7,220 14.7 -69.3°
Reaches altitude 10° 04:03:26 10° 273° (W) 6,520 14.3 -69.8°
Enters shadow 04:10:33 22° 256° (WSW) 5,830 13.8 -70.2°
Maximum altitude 04:20:33 29° 223° (SW) 5,419 - -70.8°
Drops below altitude 10° 04:37:37 10° 172° (S) 6,396 - -71.2°
Sets 04:43:06 0° 162° (SSE) 7,057 - -71.1°
